EN

Hourly Weather Alliste

Today, 26 January, Tuesday

Time Temperature Precipitation Wind Pressure Humidity
00:00 +12°C° 0.1 mm 11 mps 752 mmHg 68%
01:00 +12°C° 0.1 mm 10 mps 752 mmHg 69%
02:00 +12°C° 0.2 mm 9 mps 751 mmHg 74%
03:00 +11°C° 0.2 mm 8 mps 751 mmHg 78%
04:00 +11°C° 0.2 mm 7 mps 751 mmHg 83%
05:00 +10°C° 0.6 mm 7 mps 751 mmHg 85%
06:00 +10°C° 0.6 mm 7 mps 751 mmHg 87%
07:00 +9°C° 0.6 mm 7 mps 751 mmHg 89%
08:00 +7°C° 1.6 mm 8 mps 751 mmHg 87%
09:00 +6°C° 1.6 mm 10 mps 751 mmHg 85%
10:00 +4°C° 1.6 mm 11 mps 751 mmHg 83%
11:00 +6°C° 0.4 mm 11 mps 751 mmHg 77%
12:00 +7°C° 0.4 mm 11 mps 751 mmHg 71%
13:00 +8°C° 0.4 mm 11 mps 751 mmHg 65%
14:00 +7°C° 0 mm 12 mps 751 mmHg 64%
15:00 +7°C° 0 mm 13 mps 752 mmHg 63%
16:00 +6°C° 0 mm 14 mps 752 mmHg 62%
17:00 +5°C° 0 mm 15 mps 752 mmHg 60%
18:00 +4°C° 0 mm 15 mps 752 mmHg 57%
19:00 +4°C° 0 mm 16 mps 753 mmHg 55%
20:00 +2°C° 0 mm 16 mps 753 mmHg 54%
21:00 +2°C° 0 mm 15 mps 754 mmHg 53%
22:00 +2°C° 0 mm 15 mps 754 mmHg 53%
23:00 +2°C° 0 mm 15 mps 754 mmHg 53%

Tomorrow, 27 January, Wednesday

Time Temperature Precipitation Wind Pressure Humidity
00:00 +2°C° 0 mm 15 mps 755 mmHg 54%
01:00 +1°C° 0 mm 14 mps 755 mmHg 54%
02:00 +1°C° 0 mm 15 mps 755 mmHg 53%
03:00 +1°C° 0 mm 15 mps 755 mmHg 52%
04:00 +1°C° 0 mm 15 mps 755 mmHg 51%
05:00 +1°C° 0 mm 14 mps 755 mmHg 54%
06:00 +1°C° 0 mm 14 mps 756 mmHg 56%
07:00 +1°C° 0 mm 13 mps 757 mmHg 59%
08:00 +3°C° 0 mm 13 mps 757 mmHg 55%
09:00 +4°C° 0 mm 13 mps 757 mmHg 51%
10:00 +5°C° 0 mm 12 mps 758 mmHg 47%
11:00 +7°C° 0 mm 13 mps 757 mmHg 46%
12:00 +7°C° 0 mm 13 mps 757 mmHg 44%
13:00 +8°C° 0 mm 14 mps 757 mmHg 43%
14:00 +7°C° 0 mm 13 mps 757 mmHg 45%
15:00 +7°C° 0 mm 13 mps 757 mmHg 47%
16:00 +5°C° 0 mm 13 mps 757 mmHg 49%
17:00 +4°C° 0 mm 12 mps 758 mmHg 50%
18:00 +4°C° 0 mm 12 mps 758 mmHg 52%
19:00 +3°C° 0 mm 11 mps 758 mmHg 53%
20:00 +3°C° 0 mm 10 mps 759 mmHg 55%
21:00 +3°C° 0 mm 10 mps 759 mmHg 57%
22:00 +2°C° 0 mm 9 mps 759 mmHg 59%
23:00 +2°C° 0 mm 9 mps 759 mmHg 60%

Day after tomorrow, 28 January, Thursday

Time Temperature Precipitation Wind Pressure Humidity
00:00 +2°C° 0 mm 8 mps 759 mmHg 61%
01:00 +2°C° 0 mm 8 mps 759 mmHg 62%
02:00 +3°C° 0 mm 7 mps 759 mmHg 62%
03:00 +3°C° 0 mm 7 mps 759 mmHg 62%
04:00 +3°C° 0 mm 6 mps 758 mmHg 62%
05:00 +2°C° 0 mm 6 mps 759 mmHg 63%
06:00 +2°C° 0 mm 6 mps 759 mmHg 63%
07:00 +2°C° 0 mm 6 mps 759 mmHg 64%
08:00 +3°C° 0 mm 6 mps 759 mmHg 60%
09:00 +5°C° 0 mm 7 mps 760 mmHg 56%
10:00 +6°C° 0 mm 7 mps 760 mmHg 52%
11:00 +8°C° 0 mm 7 mps 760 mmHg 52%
12:00 +9°C° 0 mm 7 mps 760 mmHg 52%
13:00 +10°C° 0 mm 7 mps 760 mmHg 53%
14:00 +10°C° 0 mm 6 mps 760 mmHg 55%
15:00 +9°C° 0 mm 5 mps 760 mmHg 58%
16:00 +10°C° 0 mm 4 mps 760 mmHg 61%
17:00 +9°C° 0 mm 3 mps 760 mmHg 64%
18:00 +7°C° 0 mm 2 mps 760 mmHg 67%
19:00 +7°C° 0 mm 1 mps 760 mmHg 69%
20:00 +6°C° 0 mm 2 mps 760 mmHg 67%
21:00 +7°C° 0 mm 3 mps 760 mmHg 66%
22:00 +6°C° 0 mm 4 mps 760 mmHg 64%
23:00 +6°C° 0 mm 4 mps 759 mmHg 66%

29 January, Friday

Time Temperature Precipitation Wind Pressure Humidity
00:00 +7°C° 0 mm 4 mps 759 mmHg 68%
01:00 +8°C° 0 mm 3 mps 759 mmHg 70%
02:00 +7°C° 0 mm 4 mps 758 mmHg 73%
03:00 +7°C° 0 mm 4 mps 758 mmHg 76%
04:00 +8°C° 0 mm 4 mps 757 mmHg 80%
05:00 +8°C° 0 mm 4 mps 757 mmHg 80%
06:00 +8°C° 0 mm 4 mps 757 mmHg 81%
07:00 +8°C° 0 mm 4 mps 757 mmHg 82%
08:00 +11°C° 0 mm 4 mps 757 mmHg 80%
09:00 +12°C° 0 mm 4 mps 757 mmHg 79%
10:00 +13°C° 0 mm 5 mps 757 mmHg 77%
11:00 +14°C° 0 mm 5 mps 757 mmHg 75%
12:00 +15°C° 0 mm 5 mps 756 mmHg 73%
13:00 +15°C° 0 mm 5 mps 756 mmHg 70%
14:00 +15°C° 0 mm 5 mps 756 mmHg 74%
15:00 +14°C° 0 mm 5 mps 755 mmHg 79%
16:00 +14°C° 0 mm 5 mps 755 mmHg 83%
17:00 +14°C° 0 mm 5 mps 755 mmHg 85%
18:00 +13°C° 0 mm 5 mps 755 mmHg 87%
19:00 +13°C° 0 mm 5 mps 754 mmHg 90%
20:00 +13°C° 0 mm 4 mps 754 mmHg 88%
21:00 +13°C° 0 mm 4 mps 754 mmHg 86%
22:00 +13°C° 0 mm 3 mps 754 mmHg 85%
23:00 +13°C° 0 mm 4 mps 753 mmHg 82%

30 January, Saturday

Time Temperature Precipitation Wind Pressure Humidity
00:00 +13°C° 0 mm 5 mps 752 mmHg 79%
01:00 +14°C° 0 mm 6 mps 752 mmHg 77%
02:00 +12°C° 0 mm 7 mps 751 mmHg 80%
03:00 +12°C° 0 mm 8 mps 750 mmHg 84%
04:00 +12°C° 0 mm 9 mps 748 mmHg 88%
05:00 +12°C° 0 mm 10 mps 749 mmHg 84%
06:00 +13°C° 0 mm 10 mps 749 mmHg 80%
07:00 +13°C° 0 mm 11 mps 749 mmHg 77%
08:00 +13°C° 0 mm 11 mps 750 mmHg 76%
09:00 +13°C° 0 mm 11 mps 751 mmHg 75%
10:00 +13°C° 0 mm 11 mps 751 mmHg 74%
11:00 +13°C° 0 mm 9 mps 752 mmHg 72%
12:00 +14°C° 0 mm 6 mps 752 mmHg 70%
13:00 +14°C° 0 mm 4 mps 753 mmHg 68%
14:00 +14°C° 0 mm 3 mps 753 mmHg 68%
15:00 +14°C° 0 mm 3 mps 753 mmHg 68%
16:00 +15°C° 0 mm 2 mps 753 mmHg 69%
17:00 +13°C° 0 mm 3 mps 753 mmHg 73%
18:00 +12°C° 0 mm 3 mps 753 mmHg 77%
19:00 +11°C° 0 mm 3 mps 754 mmHg 82%
20:00 +11°C° 0 mm 4 mps 754 mmHg 83%
21:00 +11°C° 0 mm 4 mps 754 mmHg 84%
22:00 +10°C° 0 mm 5 mps 754 mmHg 85%
23:00 +10°C° 0 mm 5 mps 754 mmHg 85%

31 January, Sunday

Time Temperature Precipitation Wind Pressure Humidity
00:00 +10°C° 0 mm 5 mps 754 mmHg 85%
01:00 +12°C° 0 mm 5 mps 753 mmHg 85%
02:00 +12°C° 0 mm 5 mps 753 mmHg 86%
03:00 +11°C° 0 mm 6 mps 753 mmHg 87%
04:00 +11°C° 0 mm 6 mps 752 mmHg 88%
05:00 +11°C° 0.1 mm 7 mps 752 mmHg 87%
06:00 +11°C° 0.1 mm 8 mps 752 mmHg 86%
07:00 +11°C° 0.1 mm 9 mps 752 mmHg 85%
08:00 +11°C° 0.4 mm 8 mps 752 mmHg 85%
09:00 +12°C° 0.4 mm 8 mps 752 mmHg 85%
10:00 +12°C° 0.4 mm 8 mps 752 mmHg 85%
11:00 +12°C° 0.3 mm 9 mps 751 mmHg 86%
12:00 +12°C° 0.3 mm 9 mps 751 mmHg 87%
13:00 +12°C° 0.3 mm 10 mps 750 mmHg 88%
14:00 +12°C° 0.5 mm 9 mps 750 mmHg 89%
15:00 +13°C° 0.5 mm 8 mps 750 mmHg 89%
16:00 +14°C° 0.5 mm 7 mps 750 mmHg 90%
17:00 +14°C° 0.3 mm 6 mps 750 mmHg 90%
18:00 +14°C° 0.3 mm 5 mps 750 mmHg 90%
19:00 +14°C° 0.3 mm 4 mps 750 mmHg 90%
20:00 +13°C° 0 mm 4 mps 750 mmHg 91%
21:00 +13°C° 0 mm 4 mps 750 mmHg 93%
22:00 +13°C° 0 mm 4 mps 750 mmHg 94%
23:00 +12°C° 0.1 mm 4 mps 750 mmHg 94%
Show more